Simultaneous Nadir Overpasses (SNOs) Predictions

Prediction of SNOs between GOES-17 and TERRA Satellite Orbit:

Table of predicted SNOs for the next 14.0 days since TLE Epoch: 4/16/2022
Index Date Time (GOES-17) GOES-17 Lat,Lon TERRA Lat,Lon Distance(km) Time Diff (sec)
1 04/16/2022 07:39:57 -0.05,-137.18 -0.50,-139.37 248.51 80
2 04/18/2022 07:25:03 -0.05,-137.17 0.09,-136.41 85.68 80
3 04/20/2022 07:12:50 -0.05,-137.15 0.75,-133.47 418.70 80
4 04/20/2022 19:34:05 0.04,-137.14 0.34,-138.63 168.41 80
5 04/22/2022 19:24:31 0.04,-137.11 -0.27,-135.68 163.59 80
6 04/23/2022 07:45:55 -0.04,-137.10 -0.81,-140.88 428.38 80
7 04/24/2022 19:12:17 0.03,-137.08 -0.89,-132.72 495.33 80
8 04/25/2022 07:33:41 -0.03,-137.07 -0.18,-137.92 96.68 80
9 04/27/2022 07:18:46 -0.03,-137.03 0.39,-134.96 235.23 80
10 04/27/2022 19:40:01 0.03,-137.03 0.69,-140.12 352.20 80
11 04/29/2022 19:27:47 0.03,-136.99 0.05,-137.17 20.66 80
